TimeEDT,TemperatureF,Dew PointF,Humidity,Sea Level PressureIn,VisibilityMPH,Wind Direction,Wind SpeedMPH,Gust SpeedMPH,PrecipitationIn,Events,Conditions,WindDirDegrees,DateUTC
12:58 AM,62.1,59.0,90,30.18,10.0,South,6.9,-,N/A,,Clear,190,2013-04-09 04:58:00
1:58 AM,62.1,57.9,86,30.17,10.0,SSW,9.2,-,N/A,,Clear,200,2013-04-09 05:58:00
2:58 AM,62.1,57.9,86,30.16,10.0,SSW,6.9,-,N/A,,Clear,200,2013-04-09 06:58:00
3:58 AM,60.1,57.9,93,30.15,10.0,SSW,6.9,-,N/A,,Clear,210,2013-04-09 07:58:00
4:58 AM,61.0,57.9,90,30.17,10.0,SSW,8.1,-,N/A,,Clear,210,2013-04-09 08:58:00
5:58 AM,61.0,57.9,90,30.19,10.0,SSW,6.9,-,N/A,,Partly Cloudy,210,2013-04-09 09:58:00
6:58 AM,60.1,57.9,93,30.20,10.0,SSW,6.9,-,N/A,,Clear,210,2013-04-09 10:58:00
7:58 AM,63.0,60.1,90,30.22,10.0,SW,8.1,-,N/A,,Clear,220,2013-04-09 11:58:00
8:58 AM,66.0,60.1,81,30.22,10.0,WSW,10.4,-,N/A,,Clear,240,2013-04-09 12:58:00
9:58 AM,69.1,61.0,75,30.23,10.0,WSW,10.4,-,N/A,,Clear,240,2013-04-09 13:58:00
10:58 AM,71.1,61.0,70,30.24,10.0,SW,10.4,-,N/A,,Clear,220,2013-04-09 14:58:00
11:58 AM,70.0,62.1,76,30.23,10.0,SSW,10.4,-,N/A,,Clear,210,2013-04-09 15:58:00
12:58 PM,71.1,63.0,75,30.21,10.0,SSW,15.0,-,N/A,,Clear,210,2013-04-09 16:58:00
1:58 PM,72.0,63.0,73,30.19,10.0,SSW,12.7,-,N/A,,Clear,210,2013-04-09 17:58:00
2:58 PM,72.0,63.0,73,30.17,10.0,SSW,15.0,-,N/A,,Clear,200,2013-04-09 18:58:00
3:58 PM,71.1,62.1,73,30.15,10.0,SSW,16.1,-,N/A,,Clear,200,2013-04-09 19:58:00
4:58 PM,71.1,62.1,73,30.14,10.0,SSW,17.3,-,N/A,,Clear,210,2013-04-09 20:58:00
5:58 PM,69.1,61.0,75,30.14,10.0,SSW,17.3,-,N/A,,Clear,210,2013-04-09 21:58:00
6:58 PM,66.9,61.0,81,30.14,10.0,SSW,11.5,-,N/A,,Clear,210,2013-04-09 22:58:00
7:58 PM,64.0,60.1,87,30.15,10.0,SSW,11.5,-,N/A,,Clear,200,2013-04-09 23:58:00
8:58 PM,64.0,61.0,90,30.17,10.0,SSW,9.2,-,N/A,,Clear,200,2013-04-10 00:58:00
9:58 PM,64.9,61.0,87,30.17,10.0,SSW,12.7,-,N/A,,Clear,210,2013-04-10 01:58:00
10:58 PM,64.0,60.1,87,30.17,10.0,SSW,11.5,-,N/A,,Clear,210,2013-04-10 02:58:00
11:58 PM,63.0,60.1,90,30.16,10.0,SW,9.2,-,N/A,,Clear,220,2013-04-10 03:58:00